Location: Ferchesar
(52.6477°N, 12.4298°E)
Time: 03:57:10
(UTC+02:00)

Vanguard 3 - Pass Details

Date: 27 February 2021
Orbit: 508 x 3262 km, 33.3° (Epoch: 15 April)

Event Time Altitude Azimuth Distance (km) Brightness Sun altitude
Rises 21:03:49 0° 260° (W) 5,613 12.1 -29.9°
Reaches altitude 10° 21:10:13 10° 240° (WSW) 3,927 10.9 -30.8°
Maximum altitude 21:14:41 14° 213° (SSW) 3,103 10.1 -31.3°
Enters shadow 21:16:12 13° 201° (SSW) 2,979 9.9 -31.5°
Drops below altitude 10° 21:18:16 10° 184° (S) 2,988 - -31.8°
Sets 21:21:57 0° 158° (SSE) 3,507 - -32.3°
